Time,TemperatureF,DewpointF,PressureIn,WindDirection,WindDirectionDegrees,WindSpeedMPH,WindSpeedGustMPH,Humidity,HourlyPrecipIn,Conditions,Clouds,dailyrainin,SoftwareType,DateUTC
2013-04-25 00:00:00,44.6,39.8,30.10,SW,225,8.0,13.0,83,0.01,RA,RA,0.00,WeatherDisplay:10.37,2013-04-24 23:00:00,
2013-04-25 00:10:00,44.4,39.9,30.10,SW,225,8.0,14.0,84,0.00,,,0.00,WeatherDisplay:10.37,2013-04-24 23:10:00,
2013-04-25 00:20:00,44.2,40.0,30.10,SW,225,5.0,13.0,85,0.00,CLR,CLR,0.00,WeatherDisplay:10.37,2013-04-24 23:20:00,
2013-04-25 00:30:00,44.1,40.1,30.10,SW,227,3.0,11.0,86,0.00,CLR,CLR,0.00,WeatherDisplay:10.37,2013-04-24 23:30:00,
2013-04-25 00:40:00,44.2,40.3,30.10,SW,225,3.0,12.0,86,0.00,CLR,CLR,0.00,WeatherDisplay:10.37,2013-04-24 23:40:00,
2013-04-25 00:50:00,44.2,40.3,30.09,SW,225,2.0,12.0,86,0.00,CLR,CLR,0.00,WeatherDisplay:10.37,2013-04-24 23:50:00,
2013-04-25 01:00:00,44.4,40.5,30.09,SW,225,3.0,10.0,86,0.00,CLR,CLR,0.00,WeatherDisplay:10.37,2013-04-25 00:00:00,
2013-04-25 01:10:00,44.2,40.3,30.09,SW,227,5.0,10.0,86,0.00,CLR,CLR,0.00,WeatherDisplay:10.37,2013-04-25 00:10:00,
2013-04-25 01:20:00,44.2,40.3,30.09,SW,225,2.0,9.0,86,0.00,CLR,CLR,0.00,WeatherDisplay:10.37,2013-04-25 00:20:00,
2013-04-25 01:30:00,44.2,40.3,30.09,SW,227,2.0,8.0,86,0.01,RA,RA,0.01,WeatherDisplay:10.37,2013-04-25 00:30:00,
2013-04-25 01:40:00,44.2,40.6,30.08,SW,225,5.0,8.0,87,0.00,CLR,CLR,0.01,WeatherDisplay:10.37,2013-04-25 00:40:00,
2013-04-25 01:50:00,44.2,40.6,30.08,SW,225,3.0,9.0,87,0.00,CLR,CLR,0.01,WeatherDisplay:10.37,2013-04-25 00:50:00,
2013-04-25 02:00:00,44.2,40.6,30.08,SW,225,3.0,12.0,87,0.00,CLR,CLR,0.01,WeatherDisplay:10.37,2013-04-25 01:00:00,
2013-04-25 02:10:00,44.4,40.8,30.08,SW,225,5.0,13.0,87,0.00,CLR,CLR,0.01,WeatherDisplay:10.37,2013-04-25 01:10:00,
2013-04-25 02:20:00,44.2,40.6,30.08,SW,225,6.0,11.0,87,0.00,CLR,CLR,0.01,WeatherDisplay:10.37,2013-04-25 01:20:00,
2013-04-25 02:30:00,44.1,40.4,30.08,SW,225,2.0,13.0,87,0.00,CLR,CLR,0.01,WeatherDisplay:10.37,2013-04-25 01:30:00,
2013-04-25 02:40:00,43.7,40.1,30.07,SW,225,5.0,11.0,87,0.01,RA,RA,0.02,WeatherDisplay:10.37,2013-04-25 01:40:00,
2013-04-25 02:50:00,43.7,40.1,30.07,SW,225,3.0,12.0,87,0.00,CLR,CLR,0.02,WeatherDisplay:10.37,2013-04-25 01:50:00,
2013-04-25 03:00:00,43.7,40.4,30.07,SW,225,5.0,11.0,88,0.00,CLR,CLR,0.02,WeatherDisplay:10.37,2013-04-25 02:00:00,
2013-04-25 03:10:00,43.9,40.6,30.06,SW,225,5.0,12.0,88,0.00,CLR,CLR,0.02,WeatherDisplay:10.37,2013-04-25 02:10:00,
2013-04-25 03:20:00,44.1,40.7,30.06,SW,225,3.0,13.0,88,0.00,CLR,CLR,0.02,WeatherDisplay:10.37,2013-04-25 02:20:00,
2013-04-25 03:30:00,44.1,40.4,30.06,SW,225,5.0,11.0,87,0.00,CLR,CLR,0.02,WeatherDisplay:10.37,2013-04-25 02:30:00,
2013-04-25 03:40:00,44.1,40.4,30.05,SW,225,5.0,13.0,87,0.00,CLR,CLR,0.02,WeatherDisplay:10.37,2013-04-25 02:40:00,
2013-04-25 03:50:00,44.2,40.6,30.05,SW,226,5.0,12.0,87,0.00,CLR,CLR,0.02,WeatherDisplay:10.37,2013-04-25 02:50:00,
2013-04-25 04:00:00,44.6,40.6,30.05,SW,225,5.0,11.0,86,0.00,CLR,CLR,0.02,WeatherDisplay:10.37,2013-04-25 03:00:00,
2013-04-25 04:10:00,44.2,40.3,30.05,SW,225,3.0,10.0,86,0.00,CLR,CLR,0.02,WeatherDisplay:10.37,2013-04-25 03:10:00,
2013-04-25 04:20:00,44.2,40.3,30.05,SW,225,5.0,9.0,86,0.00,CLR,CLR,0.02,WeatherDisplay:10.37,2013-04-25 03:20:00,
2013-04-25 04:30:00,43.8,39.9,30.04,SW,225,6.0,9.0,86,0.00,CLR,CLR,0.02,WeatherDisplay:10.37,2013-04-25 03:30:00,
2013-04-25 04:40:00,43.7,40.1,30.05,SSW,211,5.0,9.0,87,0.00,CLR,CLR,0.02,WeatherDisplay:10.37,2013-04-25 03:40:00,
2013-04-25 04:50:00,44.1,40.4,30.04,SW,225,3.0,9.0,87,0.01,RA,RA,0.04,WeatherDisplay:10.37,2013-04-25 03:50:00,
2013-04-25 05:00:00,44.1,40.4,30.04,SW,225,5.0,8.0,87,0.00,CLR,CLR,0.04,WeatherDisplay:10.37,2013-04-25 04:00:00,
2013-04-25 05:10:00,43.7,40.1,30.04,SW,227,5.0,9.0,87,0.00,CLR,CLR,0.04,WeatherDisplay:10.37,2013-04-25 04:10:00,
2013-04-25 05:20:00,43.4,39.8,30.04,SW,225,5.0,8.0,87,0.00,CLR,CLR,0.04,WeatherDisplay:10.37,2013-04-25 04:20:00,
2013-04-25 05:30:00,43.3,39.7,30.04,SW,225,2.0,8.0,87,0.00,CLR,CLR,0.04,WeatherDisplay:10.37,2013-04-25 04:30:00,
2013-04-25 05:40:00,43.5,39.9,30.03,SW,225,3.0,7.0,87,0.00,CLR,CLR,0.04,WeatherDisplay:10.37,2013-04-25 04:40:00,
2013-04-25 05:50:00,43.3,39.7,30.03,SW,225,2.0,6.0,87,0.00,CLR,CLR,0.04,WeatherDisplay:10.37,2013-04-25 04:50:00,
2013-04-25 06:00:00,43.2,39.6,30.03,SW,225,1.0,8.0,87,0.00,CLR,CLR,0.04,WeatherDisplay:10.37,2013-04-25 05:00:00,
2013-04-25 06:10:00,43.0,39.4,30.03,SW,225,2.0,7.0,87,0.00,CLR,CLR,0.04,WeatherDisplay:10.37,2013-04-25 05:10:00,
2013-04-25 06:20:00,43.9,40.6,30.03,SW,225,3.0,6.0,88,0.00,CLR,CLR,0.04,WeatherDisplay:10.37,2013-04-25 05:20:00,
2013-04-25 06:30:00,44.6,40.7,30.04,SW,225,3.0,6.0,86,0.00,CLR,CLR,0.04,WeatherDisplay:10.37,2013-04-25 05:30:00,
2013-04-25 06:40:00,45.1,40.9,30.04,SW,227,3.0,8.0,85,0.00,CLR,CLR,0.04,WeatherDisplay:10.37,2013-04-25 05:40:00,
2013-04-25 06:50:00,45.0,40.1,30.04,SW,228,3.0,7.0,83,0.00,CLR,CLR,0.04,WeatherDisplay:10.37,2013-04-25 05:50:00,
2013-04-25 07:00:00,45.1,40.3,30.05,SW,225,3.0,8.0,83,0.00,CLR,CLR,0.04,WeatherDisplay:10.37,2013-04-25 06:00:00,
2013-04-25 07:10:00,45.0,40.1,30.05,SW,225,3.0,7.0,83,0.00,CLR,CLR,0.04,WeatherDisplay:10.37,2013-04-25 06:10:00,
2013-04-25 07:20:00,45.3,40.5,30.05,SW,225,5.0,8.0,83,0.00,CLR,CLR,0.04,WeatherDisplay:10.37,2013-04-25 06:20:00,
2013-04-25 07:30:00,45.5,40.3,30.06,SW,225,3.0,7.0,82,0.00,CLR,CLR,0.04,WeatherDisplay:10.37,2013-04-25 06:30:00,
2013-04-25 07:40:00,45.7,40.5,30.05,SW,225,3.0,7.0,82,0.00,CLR,CLR,0.04,WeatherDisplay:10.37,2013-04-25 06:40:00,
2013-04-25 07:50:00,45.3,39.8,30.06,SW,225,5.0,7.0,81,0.00,CLR,CLR,0.04,WeatherDisplay:10.37,2013-04-25 06:50:00,
2013-04-25 08:00:00,45.3,39.8,30.06,SW,225,3.0,6.0,81,0.00,CLR,CLR,0.04,WeatherDisplay:10.37,2013-04-25 07:00:00,
2013-04-25 08:10:00,45.7,40.2,30.06,SW,227,3.0,6.0,81,0.00,CLR,CLR,0.04,WeatherDisplay:10.37,2013-04-25 07:10:00,
2013-04-25 08:20:00,45.9,40.0,30.07,SW,225,3.0,6.0,80,0.00,CLR,CLR,0.04,WeatherDisplay:10.37,2013-04-25 07:20:00,
2013-04-25 08:30:00,45.9,40.4,30.07,SW,225,2.0,6.0,81,0.00,CLR,CLR,0.04,WeatherDisplay:10.37,2013-04-25 07:30:00,
2013-04-25 08:40:00,46.6,40.7,30.07,SW,225,2.0,6.0,80,0.00,CLR,CLR,0.04,WeatherDisplay:10.37,2013-04-25 07:40:00,
2013-04-25 08:50:00,47.0,40.5,30.07,SW,225,3.0,6.0,78,0.00,CLR,CLR,0.04,WeatherDisplay:10.37,2013-04-25 07:50:00,
2013-04-25 09:00:00,46.9,40.4,30.07,SW,225,6.0,8.0,78,0.00,CLR,CLR,0.04,WeatherDisplay:10.37,2013-04-25 08:00:00,
2013-04-25 09:10:00,47.0,39.8,30.08,SW,225,6.0,9.0,76,0.00,CLR,CLR,0.04,WeatherDisplay:10.37,2013-04-25 08:10:00,
2013-04-25 09:20:00,46.7,39.9,30.07,SW,225,6.0,9.0,77,0.00,CLR,CLR,0.04,WeatherDisplay:10.37,2013-04-25 08:20:00,
2013-04-25 09:30:00,47.2,40.3,30.08,SW,225,7.0,13.0,77,0.00,CLR,CLR,0.04,WeatherDisplay:10.37,2013-04-25 08:30:00,
2013-04-25 09:40:00,48.8,40.5,30.08,SW,225,5.0,13.0,73,0.00,CLR,CLR,0.04,WeatherDisplay:10.37,2013-04-25 08:40:00,
2013-04-25 09:50:00,49.1,41.2,30.07,SW,225,6.0,14.0,74,0.00,CLR,CLR,0.04,WeatherDisplay:10.37,2013-04-25 08:50:00,
2013-04-25 10:00:00,52.2,42.3,30.08,SW,225,9.0,15.0,69,0.00,CLR,CLR,0.04,WeatherDisplay:10.37,2013-04-25 09:00:00,
2013-04-25 10:10:00,53.6,40.9,30.08,SW,225,6.0,15.0,62,0.00,CLR,CLR,0.04,WeatherDisplay:10.37,2013-04-25 09:10:00,
2013-04-25 10:20:00,51.5,41.3,30.08,SW,225,9.0,15.0,68,0.00,CLR,CLR,0.04,WeatherDisplay:10.37,2013-04-25 09:20:00,
2013-04-25 10:30:00,52.0,41.4,30.08,SW,225,12.0,17.0,67,0.00,CLR,CLR,0.04,WeatherDisplay:10.37,2013-04-25 09:30:00,
2013-04-25 10:40:00,52.3,41.3,30.08,SW,225,9.0,17.0,66,0.00,CLR,CLR,0.04,WeatherDisplay:10.37,2013-04-25 09:40:00,
2013-04-25 10:50:00,53.0,41.9,30.08,SW,225,10.0,17.0,66,0.00,CLR,CLR,0.04,WeatherDisplay:10.37,2013-04-25 09:50:00,
2013-04-25 11:00:00,50.3,40.5,30.08,SW,225,10.0,17.0,69,0.00,CLR,CLR,0.04,WeatherDisplay:10.37,2013-04-25 10:00:00,
2013-04-25 11:10:00,48.0,40.8,30.08,SW,225,13.0,17.0,76,0.00,CLR,CLR,0.04,WeatherDisplay:10.37,2013-04-25 10:10:00,
2013-04-25 11:20:00,51.7,43.7,30.09,SW,225,10.0,16.0,74,0.00,CLR,CLR,0.04,WeatherDisplay:10.37,2013-04-25 10:20:00,
2013-04-25 11:30:00,49.1,39.4,30.08,SW,225,2.0,15.0,69,0.00,CLR,CLR,0.04,WeatherDisplay:10.37,2013-04-25 10:30:00,
2013-04-25 11:40:00,51.4,43.0,30.08,SW,225,12.0,17.0,73,0.01,RA,RA,0.05,WeatherDisplay:10.37,2013-04-25 10:40:00,
2013-04-25 11:50:00,53.1,41.3,30.08,SW,225,12.0,18.0,64,0.00,CLR,CLR,0.05,WeatherDisplay:10.37,2013-04-25 10:50:00,
2013-04-25 12:00:00,55.3,42.0,30.08,SW,225,7.0,14.0,61,0.00,CLR,CLR,0.05,WeatherDisplay:10.37,2013-04-25 11:00:00,
2013-04-25 12:10:00,55.0,39.6,30.08,SW,225,10.0,21.0,56,0.00,CLR,CLR,0.05,WeatherDisplay:10.37,2013-04-25 11:10:00,
2013-04-25 12:20:00,57.1,40.1,30.08,SW,225,13.0,18.0,53,0.00,CLR,CLR,0.05,WeatherDisplay:10.37,2013-04-25 11:20:00,
2013-04-25 12:30:00,58.1,39.0,30.08,SW,225,8.0,17.0,49,0.00,CLR,CLR,0.05,WeatherDisplay:10.37,2013-04-25 11:30:00,
2013-04-25 12:40:00,54.2,38.9,30.08,SW,225,20.0,28.0,56,0.00,CLR,CLR,0.05,WeatherDisplay:10.37,2013-04-25 11:40:00,
2013-04-25 12:50:00,54.0,40.8,30.08,SW,225,17.0,24.0,61,0.00,CLR,CLR,0.05,WeatherDisplay:10.37,2013-04-25 11:50:00,
2013-04-25 13:00:00,57.3,37.8,30.08,SW,225,12.0,20.0,48,0.00,CLR,CLR,0.05,WeatherDisplay:10.37,2013-04-25 12:00:00,
2013-04-25 13:10:00,54.4,38.1,30.07,SW,225,13.0,21.0,54,0.00,CLR,CLR,0.05,WeatherDisplay:10.37,2013-04-25 12:10:00,
2013-04-25 13:20:00,51.6,39.8,30.07,SW,225,18.0,25.0,64,0.00,CLR,CLR,0.05,WeatherDisplay:10.37,2013-04-25 12:20:00,
2013-04-25 13:30:00,51.1,40.1,30.07,SW,225,18.0,25.0,66,0.00,CLR,CLR,0.05,WeatherDisplay:10.37,2013-04-25 12:30:00,
2013-04-25 13:40:00,51.6,40.6,30.07,SW,227,21.0,30.0,66,0.00,CLR,CLR,0.05,WeatherDisplay:10.37,2013-04-25 12:40:00,
2013-04-25 13:50:00,50.9,40.7,30.08,SW,226,20.0,29.0,68,0.00,CLR,CLR,0.05,WeatherDisplay:10.37,2013-04-25 12:50:00,
2013-04-25 14:00:00,50.1,39.5,30.08,WSW,250,20.0,29.0,67,0.00,CLR,CLR,0.05,WeatherDisplay:10.37,2013-04-25 13:00:00,
2013-04-25 14:10:00,51.3,39.9,30.08,West,270,20.0,29.0,65,0.00,CLR,CLR,0.05,WeatherDisplay:10.37,2013-04-25 13:10:00,
2013-04-25 14:20:00,51.1,38.9,30.08,West,270,16.0,26.0,63,0.00,CLR,CLR,0.05,WeatherDisplay:10.37,2013-04-25 13:20:00,
2013-04-25 14:30:00,52.1,39.4,30.08,West,263,16.0,24.0,62,0.00,CLR,CLR,0.05,WeatherDisplay:10.37,2013-04-25 13:30:00,
2013-04-25 14:40:00,51.4,39.7,30.08,West,266,21.0,30.0,64,0.00,CLR,CLR,0.05,WeatherDisplay:10.37,2013-04-25 13:40:00,
2013-04-25 14:50:00,50.6,38.9,30.08,West,270,18.0,30.0,64,0.00,CLR,CLR,0.05,WeatherDisplay:10.37,2013-04-25 13:50:00,
2013-04-25 15:00:00,52.5,39.9,30.08,West,270,23.0,31.0,62,0.00,CLR,CLR,0.05,WeatherDisplay:10.37,2013-04-25 14:00:00,
2013-04-25 15:10:00,52.9,40.2,30.09,West,270,21.0,29.0,62,0.00,CLR,CLR,0.05,WeatherDisplay:10.37,2013-04-25 14:10:00,
2013-04-25 15:20:00,53.0,38.2,30.08,West,270,22.0,26.0,57,0.00,CLR,CLR,0.05,WeatherDisplay:10.37,2013-04-25 14:20:00,
2013-04-25 15:30:00,51.8,39.2,30.08,West,270,17.0,27.0,62,0.00,CLR,CLR,0.05,WeatherDisplay:10.37,2013-04-25 14:30:00,
2013-04-25 15:40:00,51.8,39.6,30.08,West,270,20.0,28.0,63,0.00,CLR,CLR,0.05,WeatherDisplay:10.37,2013-04-25 14:40:00,
2013-04-25 15:50:00,51.2,39.0,30.07,West,270,20.0,28.0,63,0.00,CLR,CLR,0.05,WeatherDisplay:10.37,2013-04-25 14:50:00,
2013-04-25 16:00:00,50.9,39.2,30.07,West,270,18.0,30.0,64,0.00,CLR,CLR,0.05,WeatherDisplay:10.37,2013-04-25 15:00:00,
2013-04-25 16:10:00,53.1,40.0,30.07,West,270,16.0,26.0,61,0.00,CLR,CLR,0.05,WeatherDisplay:10.37,2013-04-25 15:10:00,
2013-04-25 16:20:00,55.1,38.8,30.07,West,270,24.0,30.0,54,0.00,CLR,CLR,0.05,WeatherDisplay:10.37,2013-04-25 15:20:00,
2013-04-25 16:30:00,54.1,38.8,30.07,West,270,24.0,34.0,56,0.00,CLR,CLR,0.05,WeatherDisplay:10.37,2013-04-25 15:30:00,
2013-04-25 16:40:00,51.4,39.6,30.08,West,270,14.0,34.0,64,0.00,CLR,CLR,0.05,WeatherDisplay:10.37,2013-04-25 15:40:00,
2013-04-25 16:50:00,53.8,39.8,30.08,West,270,9.0,17.0,59,0.00,CLR,CLR,0.05,WeatherDisplay:10.37,2013-04-25 15:50:00,
2013-04-25 17:00:00,53.8,38.5,30.08,West,270,7.0,12.0,56,0.00,CLR,CLR,0.05,WeatherDisplay:10.37,2013-04-25 16:00:00,
2013-04-25 17:10:00,55.0,39.6,30.07,West,270,12.0,18.0,56,0.00,CLR,CLR,0.05,WeatherDisplay:10.37,2013-04-25 16:10:00,
2013-04-25 17:20:00,58.2,38.6,30.07,West,270,13.0,20.0,48,0.00,CLR,CLR,0.05,WeatherDisplay:10.37,2013-04-25 16:20:00,
2013-04-25 17:30:00,54.9,37.6,30.07,West,270,15.0,21.0,52,0.00,CLR,CLR,0.05,WeatherDisplay:10.37,2013-04-25 16:30:00,
2013-04-25 17:40:00,57.2,36.6,30.07,West,270,10.0,20.0,46,0.00,CLR,CLR,0.05,WeatherDisplay:10.37,2013-04-25 16:40:00,
2013-04-25 17:50:00,54.8,37.5,30.07,West,270,20.0,26.0,52,0.00,CLR,CLR,0.05,WeatherDisplay:10.37,2013-04-25 16:50:00,
2013-04-25 18:00:00,53.2,37.5,30.07,West,270,22.0,27.0,55,0.00,CLR,CLR,0.05,WeatherDisplay:10.37,2013-04-25 17:00:00,
2013-04-25 18:10:00,53.2,37.5,30.08,North,3,22.0,27.0,55,0.00,CLR,CLR,0.05,WeatherDisplay:10.37,2013-04-25 17:10:00,
2013-04-25 18:20:00,53.2,37.5,30.08,North,0,22.0,27.0,55,0.00,CLR,CLR,0.05,WeatherDisplay:10.37,2013-04-25 17:20:00,
2013-04-25 18:30:00,53.2,37.5,30.08,North,0,22.0,27.0,55,0.00,CLR,CLR,0.05,WeatherDisplay:10.37,2013-04-25 17:30:00,
2013-04-25 18:40:00,53.2,37.5,30.08,North,0,22.0,27.0,55,0.00,CLR,CLR,0.05,WeatherDisplay:10.37,2013-04-25 17:40:00,
2013-04-25 18:50:00,53.2,37.5,30.08,North,0,22.0,27.0,55,0.00,CLR,CLR,0.05,WeatherDisplay:10.37,2013-04-25 17:50:00,
2013-04-25 19:00:00,53.2,37.5,30.07,North,0,22.0,27.0,55,0.00,CLR,CLR,0.05,WeatherDisplay:10.37,2013-04-25 18:00:00,
2013-04-25 19:10:00,53.2,37.5,30.07,North,0,22.0,27.0,55,0.00,CLR,CLR,0.05,WeatherDisplay:10.37,2013-04-25 18:10:00,
2013-04-25 19:20:00,53.2,37.5,30.08,North,0,22.0,27.0,55,0.00,CLR,CLR,0.05,WeatherDisplay:10.37,2013-04-25 18:20:00,
2013-04-25 19:30:00,53.2,37.5,30.08,North,0,22.0,27.0,55,0.00,CLR,CLR,0.05,WeatherDisplay:10.37,2013-04-25 18:30:00,
2013-04-25 19:40:00,53.2,37.5,30.08,North,0,22.0,27.0,55,0.00,CLR,CLR,0.05,WeatherDisplay:10.37,2013-04-25 18:40:00,
2013-04-25 19:50:00,53.2,37.5,30.08,North,0,22.0,27.0,55,0.00,CLR,CLR,0.05,WeatherDisplay:10.37,2013-04-25 18:50:00,
2013-04-25 20:00:00,53.2,37.5,30.08,North,0,22.0,27.0,55,0.00,CLR,CLR,0.05,WeatherDisplay:10.37,2013-04-25 19:00:00,
2013-04-25 20:10:00,53.2,37.5,30.08,North,0,22.0,27.0,55,0.00,CLR,CLR,0.05,WeatherDisplay:10.37,2013-04-25 19:10:00,
2013-04-25 20:20:00,53.2,37.5,30.08,North,0,22.0,27.0,55,0.00,CLR,CLR,0.05,WeatherDisplay:10.37,2013-04-25 19:20:00,
2013-04-25 20:30:00,53.2,37.5,30.08,North,0,22.0,27.0,55,0.00,CLR,CLR,0.05,WeatherDisplay:10.37,2013-04-25 19:30:00,
2013-04-25 20:40:00,53.2,37.5,30.08,North,0,22.0,27.0,55,0.00,CLR,CLR,0.05,WeatherDisplay:10.37,2013-04-25 19:40:00,
2013-04-25 20:50:00,53.2,37.5,30.08,North,0,22.0,27.0,55,0.00,CLR,CLR,0.05,WeatherDisplay:10.37,2013-04-25 19:50:00,
2013-04-25 21:00:00,53.2,37.5,30.09,North,0,22.0,27.0,55,0.00,CLR,CLR,0.05,WeatherDisplay:10.37,2013-04-25 20:00:00,
2013-04-25 21:10:00,53.2,37.5,30.09,North,0,22.0,27.0,55,0.00,CLR,CLR,0.05,WeatherDisplay:10.37,2013-04-25 20:10:00,
2013-04-25 21:20:00,53.2,37.5,30.09,North,0,22.0,27.0,55,0.00,CLR,CLR,0.05,WeatherDisplay:10.37,2013-04-25 20:20:00,
2013-04-25 21:30:00,53.2,37.5,30.09,North,0,22.0,27.0,55,0.00,CLR,CLR,0.05,WeatherDisplay:10.37,2013-04-25 20:30:00,
2013-04-25 21:40:00,53.2,37.5,30.10,North,0,22.0,27.0,55,0.00,CLR,CLR,0.05,WeatherDisplay:10.37,2013-04-25 20:40:00,
2013-04-25 21:50:00,53.2,37.5,30.09,North,0,22.0,27.0,55,0.00,CLR,CLR,0.05,WeatherDisplay:10.37,2013-04-25 20:50:00,
2013-04-25 22:00:00,53.2,37.5,30.10,North,0,22.0,27.0,55,0.00,CLR,CLR,0.05,WeatherDisplay:10.37,2013-04-25 21:00:00,
2013-04-25 22:10:00,53.2,37.5,30.10,North,0,22.0,27.0,55,0.00,CLR,CLR,0.05,WeatherDisplay:10.37,2013-04-25 21:10:00,
2013-04-25 22:20:00,53.2,37.5,30.10,North,0,22.0,27.0,55,0.00,CLR,CLR,0.05,WeatherDisplay:10.37,2013-04-25 21:20:00,
2013-04-25 22:30:00,53.2,37.5,30.10,North,0,22.0,27.0,55,0.00,CLR,CLR,0.05,WeatherDisplay:10.37,2013-04-25 21:30:00,
2013-04-25 22:40:00,53.2,37.5,30.10,North,0,22.0,27.0,55,0.00,CLR,CLR,0.05,WeatherDisplay:10.37,2013-04-25 21:40:00,
2013-04-25 22:50:00,53.2,37.5,30.11,North,0,22.0,27.0,55,0.00,CLR,CLR,0.05,WeatherDisplay:10.37,2013-04-25 21:50:00,
2013-04-25 23:00:00,53.2,37.5,30.11,North,0,22.0,27.0,55,0.00,CLR,CLR,0.05,WeatherDisplay:10.37,2013-04-25 22:00:00,
2013-04-25 23:10:00,53.2,37.5,30.10,North,0,22.0,27.0,55,0.00,CLR,CLR,0.05,WeatherDisplay:10.37,2013-04-25 22:10:00,
2013-04-25 23:20:00,53.2,37.5,30.11,North,0,22.0,27.0,55,0.00,CLR,CLR,0.05,WeatherDisplay:10.37,2013-04-25 22:20:00,
2013-04-25 23:30:00,53.2,37.5,30.11,North,0,22.0,27.0,55,0.00,CLR,CLR,0.05,WeatherDisplay:10.37,2013-04-25 22:30:00,
2013-04-25 23:40:00,53.2,37.5,30.11,North,0,22.0,27.0,55,0.00,CLR,CLR,0.05,WeatherDisplay:10.37,2013-04-25 22:40:00,
2013-04-25 23:50:00,53.2,37.5,30.11,North,0,22.0,27.0,55,0.00,CLR,CLR,0.05,WeatherDisplay:10.37,2013-04-25 22:50:00,